• en Suisse
  • Liste des pays
  • À 7 jours
  • Température de l'eau
  • Carte satellitaire
  • Carte météo
  • Widgets météo
  • user-avatar
    Se connecter

    Météo par heure à Seredyna

    Ce jour, 26 Avril, Jeudi

    Heure Température Précipitation Vent Pression Humidité
    00:00 +15°C° 0,1 mm 4 m/s 732 mmHg 82%
    01:00 +14°C° 0,1 mm 4 m/s 732 mmHg 85%
    02:00 +13°C° 0 mm 2 m/s 732 mmHg 91%
    03:00 +13°C° 0 mm 2 m/s 732 mmHg 91%
    04:00 +12°C° 0 mm 2 m/s 733 mmHg 92%
    05:00 +12°C° 0 mm 2 m/s 733 mmHg 92%
    06:00 +12°C° 0 mm 3 m/s 733 mmHg 85%
    07:00 +13°C° 0 mm 3 m/s 734 mmHg 79%
    08:00 +13°C° 0 mm 4 m/s 734 mmHg 71%
    09:00 +14°C° 0 mm 3 m/s 734 mmHg 65%
    10:00 +16°C° 0 mm 3 m/s 735 mmHg 59%
    11:00 +17°C° 0 mm 3 m/s 735 mmHg 53%
    12:00 +16°C° 0,1 mm 2 m/s 735 mmHg 57%
    13:00 +16°C° 0,1 mm 2 m/s 734 mmHg 61%
    14:00 +14°C° 0 mm 1 m/s 735 mmHg 66%
    15:00 +14°C° 0,5 mm 1 m/s 735 mmHg 72%
    16:00 +13°C° 0,5 mm 1 m/s 734 mmHg 78%
    17:00 +13°C° 0,5 mm 1 m/s 734 mmHg 83%
    18:00 +12°C° 0,3 mm 1 m/s 734 mmHg 86%
    19:00 +12°C° 0,3 mm 2 m/s 735 mmHg 90%
    20:00 +10°C° 0,3 mm 2 m/s 735 mmHg 93%
    21:00 +10°C° 0,1 mm 2 m/s 735 mmHg 92%
    22:00 +10°C° 0,1 mm 3 m/s 735 mmHg 91%
    23:00 +10°C° 0,1 mm 4 m/s 735 mmHg 90%

    Demain, 27 Avril, Vendredi

    Heure Température Précipitation Vent Pression Humidité
    00:00 +8°C° 0 mm 4 m/s 736 mmHg 89%
    01:00 +8°C° 0 mm 4 m/s 736 mmHg 89%
    02:00 +8°C° 0 mm 3 m/s 736 mmHg 88%
    03:00 +7°C° 0 mm 3 m/s 737 mmHg 90%
    04:00 +5°C° 0 mm 3 m/s 737 mmHg 92%
    05:00 +5°C° 0 mm 2 m/s 737 mmHg 94%
    06:00 +7°C° 0 mm 3 m/s 738 mmHg 89%
    07:00 +8°C° 0 mm 3 m/s 738 mmHg 84%
    08:00 +9°C° 0 mm 3 m/s 738 mmHg 79%
    09:00 +10°C° 0 mm 3 m/s 739 mmHg 72%
    10:00 +11°C° 0 mm 3 m/s 739 mmHg 65%
    11:00 +13°C° 0 mm 3 m/s 739 mmHg 58%
    12:00 +13°C° 0 mm 3 m/s 739 mmHg 55%
    13:00 +15°C° 0 mm 2 m/s 739 mmHg 52%
    14:00 +15°C° 0 mm 2 m/s 739 mmHg 49%
    15:00 +16°C° 0 mm 2 m/s 739 mmHg 48%
    16:00 +16°C° 0 mm 2 m/s 739 mmHg 48%
    17:00 +16°C° 0 mm 2 m/s 738 mmHg 47%
    18:00 +14°C° 0 mm 1 m/s 738 mmHg 52%
    19:00 +13°C° 0 mm 1 m/s 738 mmHg 57%
    20:00 +11°C° 0 mm 1 m/s 738 mmHg 62%
    21:00 +10°C° 0 mm 1 m/s 739 mmHg 65%
    22:00 +9°C° 0 mm 2 m/s 739 mmHg 67%
    23:00 +8°C° 0 mm 2 m/s 739 mmHg 70%

    Après-demain, 28 Avril, Samedi

    Heure Température Précipitation Vent Pression Humidité
    00:00 +8°C° 0 mm 2 m/s 739 mmHg 72%
    01:00 +8°C° 0 mm 2 m/s 739 mmHg 74%
    02:00 +7°C° 0 mm 2 m/s 739 mmHg 77%
    03:00 +7°C° 0 mm 2 m/s 739 mmHg 78%
    04:00 +7°C° 0 mm 3 m/s 738 mmHg 79%
    05:00 +7°C° 0 mm 3 m/s 738 mmHg 79%
    06:00 +8°C° 0 mm 3 m/s 738 mmHg 76%
    07:00 +10°C° 0 mm 3 m/s 738 mmHg 72%
    08:00 +12°C° 0 mm 4 m/s 738 mmHg 68%
    09:00 +14°C° 0 mm 4 m/s 738 mmHg 61%
    10:00 +17°C° 0 mm 3 m/s 738 mmHg 54%
    11:00 +19°C° 0 mm 3 m/s 738 mmHg 48%
    12:00 +20°C° 0 mm 3 m/s 738 mmHg 46%
    13:00 +22°C° 0 mm 3 m/s 738 mmHg 44%
    14:00 +24°C° 0 mm 3 m/s 738 mmHg 42%
    15:00 +24°C° 0 mm 3 m/s 737 mmHg 44%
    16:00 +24°C° 0 mm 3 m/s 737 mmHg 46%
    17:00 +24°C° 0 mm 3 m/s 737 mmHg 48%
    18:00 +21°C° 0 mm 2 m/s 737 mmHg 56%
    19:00 +19°C° 0 mm 2 m/s 737 mmHg 64%
    20:00 +17°C° 0 mm 2 m/s 737 mmHg 72%
    21:00 +16°C° 0 mm 2 m/s 737 mmHg 75%
    22:00 +15°C° 0 mm 2 m/s 737 mmHg 78%
    23:00 +15°C° 0 mm 2 m/s 737 mmHg 81%

    29 Avril, Dimanche

    Heure Température Précipitation Vent Pression Humidité
    00:00 +14°C° 0 mm 2 m/s 737 mmHg 82%
    01:00 +14°C° 0 mm 2 m/s 737 mmHg 83%
    02:00 +14°C° 0 mm 2 m/s 737 mmHg 84%
    03:00 +14°C° 0 mm 2 m/s 737 mmHg 84%
    04:00 +14°C° 0 mm 2 m/s 737 mmHg 83%
    05:00 +14°C° 0 mm 2 m/s 736 mmHg 83%
    06:00 +16°C° 0,2 mm 3 m/s 737 mmHg 80%
    07:00 +17°C° 0,2 mm 3 m/s 737 mmHg 78%
    08:00 +19°C° 0,2 mm 3 m/s 737 mmHg 75%
    09:00 +21°C° 0 mm 4 m/s 737 mmHg 68%
    10:00 +23°C° 0 mm 4 m/s 737 mmHg 62%
    11:00 +26°C° 0 mm 4 m/s 737 mmHg 55%
    12:00 +26°C° 0,1 mm 4 m/s 737 mmHg 52%
    13:00 +27°C° 0,1 mm 4 m/s 737 mmHg 49%
    14:00 +28°C° 0,1 mm 4 m/s 736 mmHg 46%
    15:00 +28°C° 0 mm 4 m/s 736 mmHg 48%
    16:00 +28°C° 0 mm 3 m/s 736 mmHg 50%
    17:00 +27°C° 0 mm 3 m/s 735 mmHg 52%
    18:00 +25°C° 0,1 mm 3 m/s 735 mmHg 60%
    19:00 +22°C° 0,1 mm 3 m/s 735 mmHg 67%
    20:00 +20°C° 0,1 mm 3 m/s 735 mmHg 74%
    21:00 +19°C° 0,1 mm 3 m/s 735 mmHg 76%
    22:00 +18°C° 0,1 mm 3 m/s 735 mmHg 77%
    23:00 +17°C° 0,1 mm 3 m/s 735 mmHg 79%

    30 Avril, Lundi

    Heure Température Précipitation Vent Pression Humidité
    00:00 +16°C° 0 mm 3 m/s 734 mmHg 80%
    01:00 +16°C° 0 mm 3 m/s 734 mmHg 80%
    02:00 +15°C° 0 mm 2 m/s 734 mmHg 81%
    03:00 +15°C° 0 mm 2 m/s 734 mmHg 81%
    04:00 +15°C° 0 mm 2 m/s 734 mmHg 81%
    05:00 +14°C° 0 mm 2 m/s 733 mmHg 81%
    06:00 +16°C° 0 mm 3 m/s 734 mmHg 75%
    07:00 +17°C° 0 mm 3 m/s 734 mmHg 70%
    08:00 +19°C° 0 mm 3 m/s 734 mmHg 64%
    09:00 +21°C° 0 mm 4 m/s 734 mmHg 58%
    10:00 +22°C° 0 mm 4 m/s 734 mmHg 53%
    11:00 +25°C° 0 mm 4 m/s 734 mmHg 47%
    12:00 +26°C° 0 mm 4 m/s 734 mmHg 44%
    13:00 +27°C° 0 mm 4 m/s 734 mmHg 42%
    14:00 +28°C° 0 mm 4 m/s 733 mmHg 40%
    15:00 +27°C° 0 mm 4 m/s 733 mmHg 43%
    16:00 +27°C° 0 mm 4 m/s 733 mmHg 46%
    17:00 +27°C° 0 mm 4 m/s 733 mmHg 48%
    18:00 +25°C° 0 mm 3 m/s 733 mmHg 56%
    19:00 +21°C° 0 mm 3 m/s 733 mmHg 63%
    20:00 +19°C° 0 mm 3 m/s 734 mmHg 70%
    21:00 +19°C° 0,1 mm 3 m/s 734 mmHg 73%
    22:00 +18°C° 0,1 mm 2 m/s 734 mmHg 76%
    23:00 +17°C° 0,1 mm 2 m/s 735 mmHg 79%

    1 Mai, Mardi

    Heure Température Précipitation Vent Pression Humidité
    00:00 +16°C° 0,3 mm 2 m/s 735 mmHg 83%
    01:00 +16°C° 0,3 mm 2 m/s 735 mmHg 86%
    02:00 +15°C° 0,3 mm 2 m/s 735 mmHg 90%
    03:00 +15°C° 0 mm 2 m/s 735 mmHg 91%
    04:00 +14°C° 0 mm 1 m/s 736 mmHg 93%
    05:00 +14°C° 0 mm 1 m/s 736 mmHg 94%
    06:00 +15°C° 0 mm 1 m/s 736 mmHg 89%
    07:00 +16°C° 0 mm 2 m/s 737 mmHg 83%
    08:00 +18°C° 0 mm 2 m/s 737 mmHg 78%
    09:00 +19°C° 0 mm 2 m/s 737 mmHg 73%
    10:00 +20°C° 0 mm 2 m/s 737 mmHg 67%
    11:00 +23°C° 0 mm 2 m/s 737 mmHg 62%
    12:00 +23°C° 0 mm 2 m/s 737 mmHg 59%
    13:00 +24°C° 0 mm 2 m/s 737 mmHg 56%
    14:00 +25°C° 0 mm 3 m/s 737 mmHg 53%
    15:00 +25°C° 0,4 mm 2 m/s 736 mmHg 55%
    16:00 +25°C° 0,4 mm 2 m/s 736 mmHg 57%
    17:00 +25°C° 0,4 mm 2 m/s 736 mmHg 59%
    18:00 +23°C° 0,2 mm 2 m/s 736 mmHg 66%
    19:00 +21°C° 0,2 mm 2 m/s 735 mmHg 72%
    20:00 +19°C° 0,2 mm 2 m/s 735 mmHg 79%
    21:00 +18°C° 0,1 mm 2 m/s 735 mmHg 81%
    22:00 +18°C° 0,1 mm 2 m/s 735 mmHg 83%
    23:00 +17°C° 0,1 mm 2 m/s 735 mmHg 85%
    Voir plus